Back to catalog

STARLINK-35928

AliveCommunicationsVLEO
NORAD 66528·PAYLOAD·🇺🇸 United States

Launched Nov 19, 2025 from Cape Canaveral Space Force Station

Loading…

Next Passes (next 24 hours)

TLE

FreshSource: CelesTrak SupGP

Epoch: Sep 14, 2026, 14:19 UTC

1 66528C 25265N   26257.59701389  .00054004  00000+0  19566-2 0  2579
2 66528  43.0000 290.9258 0001486 275.0339 177.7433 15.27541485    14

Track STARLINK-35928 in real time with AllMySat

Download on the App Store